Location: B�hl
(48.6968°N, 8.1352°E)
Time: 11:16:37
(UTC+00:00)

Cosmos 1934 Rocket - Pass Details

Date: 08 March 2021
Orbit: 939 x 998 km, 83.0° (Epoch: 10 April)

Event Time Altitude Azimuth Distance (km) Brightness Sun altitude
Exits shadow 19:30:05 41° 97° (E) 1,345 4.2 -21.6°
Maximum altitude 19:30:24 42° 89° (E) 1,340 4.3 -21.7°
Drops below altitude 10° 19:36:07 10° 21° (NNE) 2,703 6.3 -22.6°
Sets 19:38:45 0° 15° (NNE) 3,662 7.1 -23.0°
